Regional Weather Roundup
Issued by NWS Upton, NY

Current Version | Previous Version | Text Only | Print | Product List | Glossary On
Versions: 1 2 3 4 5 6 7 8 9 10 11 12 13 14 15 16 17 18 19 20 21 22 23 24 25 26 27 28 29 30 31 32 33 34 35 36 37 38 39 40 41 42 43 44 45 46 47 48 49 50
000
ASUS41 KOKX 262108
RWROKX

REGIONAL WEATHER ROUNDUP
NATIONAL WEATHER SERVICE NEW YORK NY
500 PM EDT MON SEP 26 2016

NOTE: "FAIR" INDICATES FEW OR NO CLOUDS BELOW 12,000 FEET WITH NO
SIGNIFICANT WEATHER AND/OR OBSTRUCTIONS TO VISIBILITY.

NYZ071-072-176-178-NJZ106-104-262200-
NEW YORK CITY METRO AREA

CITY           SKY/WX    TMP DP  RH WIND       PRES   REMARKS
Central Park   SUNNY     69  50  50 VRB5      30.09F
LaGuardia APRT PTSUNNY   71  50  47 S13       30.06F
Kennedy INTL   PTSUNNY   69  50  50 S17       30.08F
Newark/Liberty PTSUNNY   70  50  49 SE13G20   30.05F
Bronx Bot Gard   N/A     68  48  49 S7        30.09S
Wall St Helipt CLEAR     73  54  49 S10G18    30.08S
Teterboro      SUNNY     71  49  45 S13       30.04F
$$

NYZ177-179-078>081-262200-
LONG ISLAND NEW YORK

CITY           SKY/WX    TMP DP  RH WIND       PRES   REMARKS
Farmingdale    SUNNY     69  50  50 S15       30.09F
MacArthur/ISP  PTSUNNY   67  51  56 S16       30.09F
Shirley        MOSUNNY   67  50  54 S12       30.11F
Riverhead      NOT AVBL
Westhampton    MOSUNNY   66  47  50 S9        30.13F
Southampton      N/A     66  50  55 S8        30.08F
Bridgehampton    N/A     64  48  55 S1        29.97F
East Hampton   PTSUNNY   64  46  51 S5        30.12F
Montauk          N/A     65  49  56 VRB6      30.14F
$$

NYZ052-065-067-262200-
HUDSON VALLEY

CITY           SKY/WX    TMP DP  RH WIND       PRES   REMARKS
White Plains   MOSUNNY   69  49  48 S12       30.06F
Newburgh       PTSUNNY   70  52  52 SW9       30.05F
Montgomery     CLOUDY    70  51  51 S9        30.03F
Poughkeepsie   CLOUDY    70  47  43 SE9       30.03F
Albany         PTSUNNY   68  46  45 S14G22    30.01F
$$

NJZ001-105-106-008-010-013-015-019>022-104-262200-
NEW JERSEY

CITY           SKY/WX    TMP DP  RH WIND       PRES   REMARKS
Newark/Liberty PTSUNNY   70  50  49 SE13G20   30.05F
Teterboro      SUNNY     71  49  45 S13       30.04F
Caldwell       CLOUDY    70  51  51 SE13G21   30.05F
Morristown     CLOUDY    70  50  49 SW7       30.05F
Somerville     CLOUDY    71  49  45 VRB5      30.03F
Linden         NOT AVBL
Sussex         CLOUDY    68  53  58 SW5       30.05F
Abdover          N/A     66  52  60 VRB3      30.05F
Trenton        CLOUDY    70  47  43 S10       30.06S
Millville      CLOUDY    70  56  61 VRB3      30.07F
Atlantic City  CLOUDY    69  53  56 S6        30.08F
Wrightstown    CLOUDY    69  48  47 S9        30.04F
Toms River     CLOUDY    69  50  50 S12       30.08F
Belmar         SUNNY     69  48  47 SE12G18   30.08F
$$

PAZ047>061-062-071-262200-
EASTERN PENNSYLVANIA

CITY           SKY/WX    TMP DP  RH WIND       PRES   REMARKS
Philadelphia   CLOUDY    71  50  47 S13       30.06F
Allentown      CLOUDY    68  51  54 S9        30.05F
Scranton       CLOUDY    64  53  67 VRB5      30.01F
$$

CTZ002-004>006-009-010-012-RIZ004-006-007-MAZ004-011-015-262200-
SOUTHERN NEW ENGLAND
 IN CT

CITY           SKY/WX    TMP DP  RH WIND       PRES   REMARKS
Bradley INTL   PTSUNNY   67  46  47 S12G20    30.07F
Hartford       SUNNY     66  49  54 S10       30.08F
Danbury        PTSUNNY   66  48  52 S10       30.07F
Wtrbury/Oxford PTSUNNY   66  46  48 S10G17    30.09F
Bridgeport     SUNNY     70  50  49 S12       30.08F
Meriden        MOSUNNY   70  46  42 S10       30.08F
New Haven      PTSUNNY   68  50  52 S12       30.09F
Chester        FAIR      66  48  52 S8        30.11F
Groton         SUNNY     66  49  54 S12       30.11F
Wilimantic     SUNNY     66  48  52 S10       30.11F

 IN RI

CITY           SKY/WX    TMP DP  RH WIND       PRES   REMARKS
Providence     CLOUDY    65  45  48 S14       30.11F
Block Island   SUNNY     64  46  52 SW9       30.14F
Westerly       SUNNY     66  44  45 S10       30.13F
 IN MA

CITY           SKY/WX    TMP DP  RH WIND       PRES   REMARKS
Boston         PTSUNNY   62  47  57 SE15      30.09F
Worcester      CLOUDY    62  41  46 SW10      30.09F
Westfield      MOSUNNY   67  46  47 S14       30.06F
Provincetown   SUNNY     61  42  49 S9        30.13F
Nantucket      SUNNY     61  40  45 S9        30.14F
$$

ANZ330-335-338-340-345-350-353-355-262200-
COASTAL MARINE OBSERVATIONS


STATION/POSITION TIME  SKY/WX   TEMP    WIND        PRES    VSBY  WAVE
                                AIR SEA DIR/SP/G                  HT/PER
                 (UTC)          (F)     (DEG/KT/KT) (MB)    (MI)  (FT/S)
NY HARB ENTRANCE 1950            67 72  180/ 14/ 17 1019.1          2/10
20S FIRE ISLAND  2050            66 69  160/ 12/ 14 1018.7          2/10
GREAT SOUTH BAY  2015            67 70  180/ 12/ 16   N/A
23 SSW MONTAUK P 2050            65 69  180/  6/ 10 1020.5          2/ 9
15 E BARNEGAT LI 2030               70                N/A           2/10
HUDSON CANYON    1950            67 70              1020.3          2/ 9
KINGS POINT      2030            68 73              1018.1
EXECUTION ROCKS  2045            69     160/ 12/ 17   N/A
CENTRAL LI SOUND 2030            67 72  200/ 12/ 17   N/A           1/ 3
EASTERN LI SOUND NOT AVBL
ROBBINS REEF     2036            67     160/ 23/ 25 1018.1
$$


>>>>>>>>>>>>>>>>>>>>>>>>>>>> KEY <<<<<<<<<<<<<<<<<<<<<<<<<<<
>                                                          <
>     SKY/WX - Sky Condition/Present Weather               <
>     TMP    - Temperature in Fahrenheit                   <
>     DP     - Dew Point in Fahrenheit                     <
>     RH     - Relative Humidity in Percent                <
>     WIND   - Direction (from) and Speed in MPH           <
>     PRES   - Mean Sea Level Pressure (inches of Hg)      <
>     WCI    - Wind Chill Index                            <
>     VSB    - VISIBILITY IN MILES                         <
>     HX     - HEAT INDEX                                  <
>     TC     - TEMPERATURE IN CELSIUS                      <
>     VRB    - VARIABLE WIND DIRECTION                     <
>                                                          <
>>>>>>>>>>>>>>>>>>>>>>>>>>>> KEY <<<<<<<<<<<<<<<<<<<<<<<<<<<




USA.gov is the U.S. government's official web portal to all federal, state and local government web resources and services.